Tracking 28081 objects as of 26-Sep-2023
HD Live streaming from Space Station
objects crossing your sky now

STARLINK-5437

Track STARLINK-5437 now!
10-day predictions
STARLINK-5437 is classified as:


NORAD ID: 54782
Int'l Code: 2022-175AA
Perigee: 513.3 km
Apogee: 517.8 km
Inclination: 53.2 °
Period: 94.8 minutes
Semi major axis: 6886 km
RCS: Unknown
Launch date: December 17, 2022
Source: United States (US)
Launch site: AIR FORCE EASTERN TEST RANGE (AFETR)
Your satellite tracking list
Your tracking list is empty




NASA's NSSDC Master Catalog

Two Line Element Set (TLE):
1 54782U 22175AA  23268.70012344  .00011502  00000-0  55460-3 0  9997
2 54782  53.2216  53.9610 0003240 122.4259 237.7051 15.19159204 43228
Source of the keplerian elements: AFSPC